Total_Precipitation_Accumulation
0.30 0.31 0.34 0.30 0.29 0.29 0.31 0.43 0.59 0.42 0.12 0.03 0.05 0.07 0.10 0.16 0.20 0.21 0.22 0.23 0.27 0.32 0.38 0.40 0.45 0.59 0.91 1.52 2.49 3.49 3.66 2.94 2.07 1.55 1.49 1.84 2.20 2.59
0.36 0.37 0.39 0.39 0.38 0.35 0.35 0.38 0.47 0.55 0.33 0.06 0.05 0.08 0.13 0.17 0.22 0.20 0.22 0.25 0.24 0.26 0.30 0.35 0.40 0.52 0.72 1.03 1.62 2.52 3.38 3.58 3.03 2.30 1.91 1.94 2.19 2.44
0.40 0.45 0.47 0.49 0.53 0.50 0.47 0.44 0.42 0.47 0.46 0.13 0.04 0.06 0.15 0.21 0.22 0.21 0.24 0.22 0.19 0.21 0.24 0.30 0.37 0.46 0.62 0.84 1.17 1.76 2.59 3.30 3.49 3.09 2.64 2.34 2.28 2.32
0.51 0.51 0.52 0.54 0.59 0.60 0.61 0.55 0.45 0.39 0.44 0.29 0.09 0.07 0.12 0.22 0.28 0.27 0.25 0.23 0.20 0.21 0.25 0.29 0.35 0.44 0.56 0.74 0.96 1.30 1.91 2.57 3.12 3.26 3.01 2.62 2.40 2.44
0.78 0.77 0.70 0.64 0.64 0.63 0.66 0.63 0.54 0.45 0.41 0.38 0.22 0.12 0.13 0.22 0.34 0.37 0.33 0.29 0.25 0.24 0.25 0.28 0.31 0.37 0.47 0.59 0.78 1.02 1.31 1.74 2.25 2.85 3.09 2.89 2.56 2.45
0.85 0.89 0.89 0.89 0.83 0.77 0.75 0.70 0.66 0.62 0.54 0.52 0.40 0.26 0.21 0.25 0.42 0.50 0.44 0.36 0.32 0.29 0.29 0.28 0.31 0.34 0.37 0.40 0.47 0.64 0.90 1.29 1.77 2.31 2.83 2.95 2.67 2.47
0.67 0.69 0.79 0.95 1.01 1.05 1.08 0.98 0.93 0.97 0.89 0.81 0.67 0.51 0.40 0.43 0.54 0.59 0.65 0.55 0.45 0.39 0.37 0.30 0.28 0.25 0.25 0.28 0.36 0.46 0.65 0.89 1.24 1.74 2.25 2.65 2.70 2.56
0.53 0.50 0.53 0.70 0.82 0.92 1.05 1.07 1.12 1.26 1.31 1.19 0.98 0.79 0.56 0.50 0.57 0.72 0.84 0.89 0.74 0.47 0.47 0.44 0.38 0.34 0.27 0.24 0.27 0.35 0.50 0.72 0.96 1.29 1.70 2.14 2.43 2.59
0.36 0.37 0.39 0.47 0.59 0.61 0.71 0.79 0.87 1.04 1.26 1.35 1.29 0.96 0.69 0.55 0.69 0.85 0.89 0.96 0.85 0.66 0.73 0.79 0.62 0.52 0.39 0.35 0.37 0.37 0.45 0.59 0.76 0.98 1.28 1.69 2.08 2.37
0.29 0.28 0.26 0.32 0.44 0.56 0.64 0.64 0.63 0.75 1.04 1.27 1.40 1.21 0.96 0.83 0.96 1.17 1.27 1.25 1.06 0.91 0.94 1.11 0.92 0.73 0.60 0.50 0.44 0.39 0.43 0.49 0.61 0.77 1.00 1.33 1.72 2.04
0.27 0.28 0.24 0.21 0.39 0.56 0.57 0.52 0.46 0.52 0.68 0.97 1.19 1.23 1.20 1.24 1.33 1.58 1.72 1.67 1.50 1.20 1.09 1.20 1.19 1.05 0.91 0.79 0.63 0.50 0.45 0.46 0.52 0.65 0.80 1.02 1.37 1.80
0.25 0.26 0.33 0.36 0.47 0.53 0.48 0.49 0.53 0.48 0.46 0.52 0.63 0.72 0.81 0.88 1.11 1.39 1.58 1.66 1.64 1.61 1.28 1.20 1.36 1.43 1.53 1.20 0.85 0.57 0.47 0.51 0.54 0.60 0.70 0.84 1.12 1.43
0.33 0.30 0.30 0.39 0.43 0.47 0.49 0.48 0.57 0.54 0.50 0.58 0.60 0.58 0.62 0.73 0.86 1.10 1.37 1.56 1.70 1.67 1.33 1.33 1.56 1.48 1.57 1.48 1.15 0.81 0.52 0.47 0.51 0.61 0.70 0.78 0.92 1.08
0.36 0.29 0.30 0.38 0.42 0.46 0.46 0.49 0.52 0.51 0.51 0.52 0.49 0.48 0.54 0.64 0.75 0.93 1.14 1.31 1.40 1.44 1.27 1.29 1.66 1.52 1.42 1.31 1.21 1.08 0.79 0.58 0.49 0.51 0.59 0.82 0.97 1.01
0.50 0.49 0.43 0.44 0.43 0.36 0.37 0.42 0.42 0.39 0.45 0.48 0.42 0.38 0.44 0.57 0.65 0.75 0.89 1.07 1.20 1.26 1.28 1.25 1.43 1.51 1.49 1.36 1.09 0.99 0.96 0.85 0.62 0.55 0.59 0.66 0.75 0.85
0.59 0.58 0.54 0.50 0.40 0.31 0.28 0.27 0.27 0.31 0.38 0.42 0.37 0.32 0.34 0.44 0.56 0.69 0.85 0.99 1.17 1.21 1.24 1.32 1.44 1.65 1.66 1.33 1.14 0.97 0.83 0.93 0.79 0.60 0.60 0.66 0.66 0.62
0.68 0.63 0.52 0.46 0.44 0.35 0.26 0.21 0.20 0.24 0.29 0.30 0.31 0.32 0.34 0.42 0.50 0.61 0.82 0.98 1.13 1.14 1.24 1.44 1.57 1.66 1.73 1.66 1.51 1.11 0.83 0.75 0.72 0.62 0.65 0.77 0.82 0.72
0.71 0.63 0.45 0.37 0.36 0.33 0.29 0.24 0.19 0.19 0.20 0.24 0.29 0.32 0.36 0.43 0.49 0.56 0.74 0.93 1.05 1.07 1.17 1.37 1.60 1.77 1.95 2.02 1.77 1.31 0.96 0.83 0.79 0.72 0.67 0.77 0.92 0.86
0.51 0.43 0.33 0.29 0.27 0.27 0.27 0.24 0.20 0.16 0.19 0.24 0.27 0.29 0.34 0.40 0.46 0.53 0.64 0.79 0.92 1.02 1.13 1.25 1.47 1.68 1.80 1.90 1.96 1.59 1.20 1.00 0.96 0.97 0.85 0.75 0.79 0.84
0.34 0.32 0.31 0.28 0.27 0.26 0.25 0.24 0.21 0.19 0.21 0.22 0.22 0.24 0.30 0.38 0.43 0.47 0.55 0.70 0.84 0.95 1.06 1.16 1.33 1.51 1.60 1.54 1.63 1.69 1.55 1.23 1.07 1.08 1.01 0.92 0.92 1.03
0.31 0.29 0.29 0.31 0.29 0.26 0.24 0.22 0.22 0.21 0.18 0.20 0.20 0.21 0.25 0.34 0.39 0.41 0.48 0.60 0.77 0.89 0.96 1.03 1.16 1.31 1.48 1.49 1.42 1.41 1.58 1.59 1.26 1.07 1.03 1.09 1.20 1.21
0.30 0.29 0.28 0.29 0.29 0.27 0.26 0.24 0.24 0.21 0.19 0.19 0.19 0.20 0.23 0.29 0.34 0.37 0.45 0.54 0.64 0.75 0.85 0.93 1.06 1.28 1.51 1.58 1.43 1.28 1.42 1.64 1.66 1.39 1.16 1.09 1.21 1.24
0.33 0.32 0.31 0.30 0.29 0.27 0.25 0.24 0.23 0.20 0.17 0.18 0.18 0.18 0.20 0.24 0.27 0.33 0.39 0.46 0.55 0.65 0.78 0.92 1.05 1.24 1.43 1.51 1.49 1.33 1.27 1.40 1.54 1.56 1.53 1.28 0.96 0.79